FW6259 Weather Reports


time (UTC)temp
C
wind
direction
speed
KPH
gust
KPH
rain 1hr
cm
rain 24hr
cm
rain mn
cm
humidity
%
barometer
mb
20260508140044 -1 219 0.0 0.0 0.00 0.00 0.00 83 1013.6
20260508134601 -2 219 0.0 0.0 0.00 0.00 0.00 85 1013.9
20260508133049 -2 219 0.0 0.0 0.00 0.00 0.00 85 1013.9
20260508131505 -2 229 0.0 0.0 0.00 0.00 0.00 85 1014.1
20260508130107 -2 229 0.0 0.0 0.00 0.00 0.00 83 1014.1
20260508124548 -1 229 0.0 0.0 0.00 0.00 0.00 82 1014.5
20260508123046 -1 229 0.0 0.0 0.00 0.00 0.00 82 1014.5
20260508121559 -1 229 0.0 1.6 0.00 0.00 0.00 80 1014.7
20260508120049 -1 231 0.0 1.6 0.00 0.00 0.00 79 1014.8
20260508114600 0 11 0.0 1.6 0.00 0.00 0.00 76 1015.0
20260508113056 0 22 0.0 3.2 0.00 0.00 0.00 76 1015.2
20260508111550 0 77 0.0 1.6 0.00 0.00 0.00 74 1015.4
20260508110133 0 77 0.0 3.2 0.00 0.00 0.00 73 1015.6
20260508104603 0 61 0.0 1.6 0.00 0.00 0.00 74 1015.6
20260508103057 0 62 0.0 6.4 0.00 0.00 0.00 73 1015.8
20260508101552 0 32 0.0 6.4 0.00 0.00 0.00 73 1015.9
20260508100057 1 115 0.0 0.0 0.00 0.00 0.00 69 1015.9
20260508094558 1 207 0.0 3.2 0.00 0.00 0.00 68 1015.9
20260508093056 2 237 0.0 4.8 0.00 0.00 0.00 67 1016.0
20260508091559 2 218 0.0 3.2 0.00 0.00 0.00 67 1016.0
20260508090109 2 141 0.0 3.2 0.00 0.00 0.00 67 1016.1
20260508084548 2 193 0.0 6.4 0.00 0.00 0.00 66 1016.2
20260508083045 2 212 1.6 8.0 0.00 0.00 0.00 67 1016.3
20260508081613 2 214 1.6 14.5 0.00 0.00 0.00 67 1016.6
20260508080054 2 211 1.6 8.0 0.00 0.00 0.00 68 1016.5
20260508074545 2 169 0.0 8.0 0.00 0.00 0.00 68 1016.9
20260508073101 2 231 1.6 4.8 0.00 0.00 0.00 69 1017.0
20260508071549 2 264 0.0 3.2 0.00 0.00 0.00 67 1016.9
20260508070046 3 138 0.0 6.4 0.00 0.00 0.00 67 1017.0
20260508064557 3 113 1.6 6.4 0.00 0.00 0.00 66 1017.1
20260508063053 3 129 0.0 11.3 0.00 0.00 0.00 65 1017.1
20260508061548 3 212 1.6 9.7 0.00 0.00 0.00 64 1017.2
20260508060058 3 150 1.6 4.8 0.00 0.00 0.00 63 1017.3
20260508054638 4 111 0.0 9.7 0.00 0.00 0.00 62 1017.2
20260508053148 4 176 4.8 17.7 0.00 0.00 0.00 61 1017.3
20260508051502 5 226 3.2 12.9 0.00 0.00 0.00 61 1017.3
20260508050057 5 223 4.8 11.3 0.00 0.00 0.00 61 1017.3
20260508044559 5 124 6.4 22.5 0.00 0.00 0.00 60 1017.4
20260508043059 5 217 8.0 14.5 0.00 0.00 0.00 60 1017.5
20260508041601 6 245 3.2 19.3 0.00 0.00 0.00 59 1017.6
20260508040054 6 239 4.8 17.7 0.00 0.00 0.00 57 1017.4
20260508034506 6 220 6.4 29.0 0.00 0.00 0.00 55 1017.5
20260508033100 6 199 8.0 16.1 0.00 0.00 0.00 55 1017.6
20260508031601 6 258 6.4 22.5 0.00 0.00 0.00 55 1017.8
20260508030106 6 248 11.3 24.1 0.00 0.00 0.00 55 1017.8
20260508024505 6 229 8.0 22.5 0.00 0.00 0.00 53 1017.9
20260508023052 7 186 9.7 20.9 0.00 0.00 0.00 53 1017.9
20260508021609 7 152 11.3 25.7 0.00 0.00 0.00 53 1017.9
20260508020041 7 188 14.5 24.1 0.00 0.00 0.00 53 1017.9
20260508014506 7 209 6.4 20.9 0.00 0.00 0.00 54 1017.9
20260508013111 7 264 9.7 22.5 0.00 0.00 0.00 51 1018.0
20260508011601 8 290 4.8 25.7 0.00 0.00 0.00 51 1018.2
20260508010044 7 120 11.3 29.0 0.00 0.00 0.00 51 1018.1
20260508004504 7 132 11.3 33.8 0.00 0.00 0.00 50 1018.3
20260508003101 8 214 9.7 25.7 0.00 0.00 0.00 50 1018.4
20260508001549 8 148 12.9 27.4 0.00 0.00 0.00 50 1018.2
20260508000003 8 170 11.3 25.7 0.00 0.00 0.00 51 1018.5
20260507234554 8 139 9.7 24.1 0.00 0.00 0.00 52 1018.5
20260507233045 8 87 9.7 32.2 0.00 0.00 0.00 51 1018.5
20260507231502 8 214 11.3 32.2 0.00 0.00 0.00 52 1018.8
20260507230050 8 147 11.3 25.7 0.00 0.00 0.00 53 1018.9
20260507224601 8 248 11.3 32.2 0.00 0.00 0.00 52 1019.0
20260507223004 8 259 12.9 35.4 0.00 0.00 0.00 53 1019.0
20260507221555 8 127 17.7 32.2 0.00 0.00 0.00 53 1018.9
20260507220048 7 151 12.9 29.0 0.00 0.00 0.00 54 1018.9
20260507214506 8 173 20.9 35.4 0.00 0.00 0.00 53 1019.0
20260507213055 7 150 14.5 29.0 0.00 0.00 0.00 53 1019.1
20260507211553 8 179 14.5 35.4 0.00 0.00 0.00 54 1018.9
20260507210107 7 184 11.3 33.8 0.00 0.00 0.00 55 1019.0
20260507204502 8 96 9.7 37.0 0.00 0.00 0.00 55 1019.0
20260507203056 7 180 12.9 29.0 0.00 0.00 0.00 55 1019.2
20260507201547 8 117 8.0 24.1 0.00 0.00 0.00 54 1019.0
20260507200110 7 212 12.9 29.0 0.00 0.00 0.00 53 1019.0
20260507194556 7 183 12.9 30.6 0.00 0.00 0.00 55 1019.0
20260507193107 7 210 12.9 27.4 0.00 0.00 0.00 54 1019.1
20260507191515 8 158 16.1 35.4 0.00 0.00 0.00 52 1019.4
20260507190056 7 219 8.0 30.6 0.00 0.00 0.00 56 1019.2
20260507184550 7 210 17.7 33.8 0.00 0.00 0.00 55 1019.3
20260507183003 7 120 14.5 35.4 0.00 0.00 0.00 56 1019.2
20260507181555 6 162 11.3 30.6 0.00 0.00 0.00 56 1019.2
20260507180048 6 193 17.7 33.8 0.00 0.00 0.00 56 1019.5
20260507174502 7 153 11.3 32.2 0.00 0.00 0.00 57 1019.3
20260507173128 7 160 9.7 25.7 0.00 0.00 0.00 57 1019.4
20260507171551 6 179 14.5 33.8 0.00 0.00 0.00 58 1019.3
20260507170002 6 175 12.9 25.7 0.00 0.00 0.00 58 1019.3
20260507164607 6 177 11.3 32.2 0.00 0.00 0.00 60 1019.4
20260507163049 5 224 8.0 27.4 0.00 0.00 0.00 62 1019.2
20260507161559 5 125 6.4 27.4 0.00 0.00 0.00 62 1019.2
20260507160115 5 237 4.8 16.1 0.00 0.00 0.00 63 1019.3
20260507154555 5 99 6.4 19.3 0.00 0.00 0.00 63 1019.3
20260507153045 5 216 4.8 17.7 0.00 0.00 0.00 64 1019.3
20260507151600 5 243 4.8 16.1 0.00 0.00 0.00 65 1019.3
20260507150057 4 259 4.8 17.7 0.00 0.00 0.00 66 1019.2
20260507144558 4 233 6.4 17.7 0.00 0.00 0.00 67 1019.3
20260507143111 3 240 4.8 11.3 0.00 0.00 0.00 69 1019.1
20260507141613 3 226 3.2 9.7 0.00 0.00 0.00 71 1019.2